Flag for Cyprus Weather past 2 weeks in Larnaca, Cyprus

86 °F

Passing clouds.

Feels Like: 91 °F
Forecast: 65 / 83 °F
Wind: 10 mph from Southwest

Location: Larnaca Airport

Current Time: Oct 13, 2015 at 12:07:37 PM

Latest Report: Oct 13, 2015 at 11:30 AM

Visibility: N/A

Pressure: 29.92 "Hg

Humidity: 59%

Dew point: 70 °F

Location of LarnacaLocation

Historic Weather in Larnaca — Graph


Larnaca temperature yesterday

Maximum temperature yesterday: 90 °F (at 3:30 PM)
Minimum temperature yesterday: 68 °F (at 3:00 AM)
Average temperature yesterday: 78 °F

Past Weeks' High & Low Weather Summary

High90 °F (Oct 2, 12:30 PM)94% (Oct 8, 4:30 PM)30.12 "Hg (Oct 8, 4:30 PM)
Low63 °F (Oct 7, 6:00 AM)27% (Oct 12, 1:30 PM)29.65 "Hg (Oct 7, 3:00 AM)
Average77 °F62%29.92 "Hg
* Reported Sep 28 11:00 AM — Oct 13 11:00 AM, Larnaca, Weather by CustomWeather, © 2015

Note: Actual official high and low records may vary slightly from our data, if they occured in-between our weather recording intervals... More about our weather records


Larnaca weather history for previous 24 hours

Time TempWeatherWind HumidityBarometerVisibility
11:00 AM
Tue, Oct 13
84 °FPassing clouds.8 mph45%29.92 "HgN/A
10:30 AM81 °FSunny.9 mph54%29.92 "Hg10 mi
10:00 AM81 °FSunny.5 mph51%29.95 "Hg10 mi
9:30 AM81 °FPassing clouds.5 mph51%29.95 "HgN/A
9:00 AM81 °FSunny.2 mph54%29.95 "Hg10 mi
8:30 AM77 °FSunny.No wind57%29.92 "Hg10 mi
8:00 AM75 °FPassing clouds.3 mph61%29.92 "HgN/A
7:30 AM73 °FClear.3 mph57%29.92 "Hg10 mi
7:00 AM72 °FClear.1 mph53%29.92 "Hg10 mi
6:30 AM70 °FClear.3 mph53%29.92 "Hg10 mi
6:00 AM72 °FClear.7 mph50%29.92 "Hg10 mi
5:30 AM70 °FClear.7 mph53%29.92 "Hg10 mi
5:00 AM70 °FClear.6 mph57%29.92 "Hg10 mi
4:30 AM70 °FClear.7 mph57%29.92 "Hg10 mi
4:00 AM72 °FPassing clouds.5 mph53%29.92 "HgN/A
3:30 AM72 °FClear.6 mph57%29.92 "Hg10 mi
3:00 AM70 °FClear.5 mph64%29.92 "Hg10 mi
2:30 AM72 °FClear.6 mph61%29.92 "Hg10 mi
2:00 AM72 °FClear.7 mph61%29.92 "Hg10 mi
1:30 AM72 °FClear.3 mph61%29.92 "Hg10 mi
1:00 AM72 °FClear.7 mph61%29.92 "Hg10 mi
12:30 AM72 °FClear.3 mph65%29.95 "Hg10 mi
12:00 AM72 °FClear.5 mph61%29.95 "Hg10 mi
11:30 PM
Mon, Oct 12
72 °FClear.3 mph65%29.95 "Hg10 mi
11:00 PM73 °FClear.No wind61%29.95 "Hg10 mi
10:30 PM73 °FClear.3 mph61%29.95 "Hg10 mi
10:00 PM75 °FClear.No wind50%29.95 "Hg10 mi
9:30 PM75 °FClear.No wind50%29.95 "Hg10 mi
9:00 PM77 °FClear.1 mph44%29.95 "Hg10 mi
8:30 PM77 °FClear.No wind51%29.95 "Hg10 mi
8:00 PM79 °FClear.2 mph61%29.95 "Hg10 mi
7:30 PM79 °FClear.5 mph61%29.95 "Hg10 mi
7:00 PM81 °FSunny.8 mph62%29.95 "Hg10 mi
6:30 PM81 °FSunny.7 mph62%29.95 "Hg10 mi
6:00 PM82 °FSunny.7 mph58%29.92 "Hg10 mi
5:30 PM82 °FSunny.10 mph51%29.95 "Hg10 mi
5:00 PM84 °FSunny.12 mph45%29.95 "Hg10 mi
4:30 PM86 °FSunny.12 mph38%29.95 "Hg10 mi
4:00 PM86 °FSunny.10 mph38%29.95 "Hg10 mi
3:30 PM90 °FSunny.12 mph29%29.95 "Hg10 mi
3:00 PM88 °FPassing clouds.9 mph29%29.95 "HgN/A
2:30 PM86 °FSunny.7 mph27%29.95 "Hg10 mi
2:00 PM88 °FSunny.7 mph27%29.95 "Hg10 mi
1:30 PM88 °FPassing clouds.7 mph27%29.95 "HgN/A
1:00 PM86 °FSunny.9 mph33%29.95 "Hg10 mi
12:30 PM88 °FSunny.8 mph29%29.95 "Hg10 mi
12:00 PM86 °FSunny.8 mph35%29.95 "Hg10 mi
Weather by CustomWeather, © 2015

See weather overviewHow to use our weather pages